Simultaneous Nadir Overpasses (SNOs) Predictions

Prediction of SNOs between GOES-15 and METOP-B Satellite Orbit:

Table of predicted SNOs for the next 14.0 days since TLE Epoch: 6/2/2017
Index Date Time (GOES-15) GOES-15 Lat,Lon METOP-B Lat,Lon Distance(km) Time Diff (sec)
1 06/02/2017 18:50:04 -0.14,-135.06 0.79,-139.30 483.04 80
2 06/03/2017 18:26:44 -0.15,-135.09 -0.35,-134.31 89.49 80
3 06/05/2017 06:48:23 0.14,-135.11 -0.74,-138.89 431.60 80
4 06/06/2017 06:25:03 0.14,-135.14 0.40,-133.90 140.74 80
5 06/07/2017 18:46:35 -0.14,-135.21 0.62,-138.46 371.38 80
6 06/08/2017 18:23:15 -0.15,-135.24 -0.52,-133.48 200.37 80
7 06/10/2017 06:44:54 0.14,-135.25 -0.50,-138.07 321.97 80
8 06/11/2017 06:21:35 0.15,-135.27 0.63,-133.08 249.44 80
9 06/12/2017 18:43:06 -0.14,-135.33 0.38,-137.64 263.78 80
10 06/13/2017 18:19:47 -0.15,-135.35 -0.76,-132.66 307.10 80
11 06/15/2017 06:41:26 0.15,-135.35 -0.27,-137.25 216.43 80
12 06/16/2017 06:18:07 0.16,-135.37 0.87,-132.26 354.25 80




NCC Satellite Simultaneous Nadir Overpasses (SNOs) Prediction Service
